Temp
11 11 11 10 10 10 10 10 10 10 10 10 10 10 10 10 10 10 10 10 10 10 10 11 11 11 11 10 10 10 10 10 10 10 10 10 10 10 10 10 10 10
11 11 11 11 11 11 11 10 10 10 10 10 10 10 10 10 10 10 10 10 10 10 11 11 11 10 11 11 10 10 10 10 10 10 10 10 10 10 10 10 10 10
11 11 11 11 11 11 11 11 10 11 10 10 10 10 10 10 10 10 11 10 10 11 11 10 10 10 10 10 10 10 10 10 10 10 11 10 10 11 11 11 10 10
11 11 11 11 11 11 11 11 11 11 10 10 10 10 10 10 10 11 11 11 11 11 11 10 10 10 10 10 10 10 10 10 10 10 11 11 11 11 11 11 10 10
11 11 11 11 11 11 11 11 11 11 11 10 10 10 11 11 11 11 11 11 11 11 11 11 10 10 10 10 10 10 10 10 10 10 10 10 10 11 11 10 10 10
11 11 11 11 11 11 11 11 11 11 11 11 10 10 11 11 11 11 11 11 11 11 11 11 11 11 11 10 10 10 10 10 10 10 10 10 10 10 10 10 10 10
11 11 11 11 11 11 11 11 11 11 11 11 11 11 11 11 11 11 11 10 11 11 11 11 11 10 10 10 10 10 10 10 10 10 10 10 10 10 10 10 10 10
11 11 11 11 11 11 11 11 11 11 10 11 11 11 11 11 11 11 11 11 11 11 11 11 11 10 10 11 10 10 10 10 10 10 10 10 10 10 11 10 11 11
11 11 11 11 11 11 11 11 11 11 10 11 11 11 11 11 11 11 11 11 11 11 11 11 11 10 10 11 11 10 10 10 11 10 10 10 10 10 10 10 10 10
11 11 11 11 11 11 11 11 11 11 11 11 11 11 11 11 11 11 11 11 11 11 11 11 11 11 11 11 10 10 11 11 11 10 10 10 10 10 10 10 10 10
11 11 11 11 11 11 11 11 11 11 11 11 11 11 11 11 11 11 11 11 11 11 11 11 11 11 11 10 10 11 11 10 10 10 10 10 10 10 10 10 10 10
11 11 11 11 11 11 11 11 11 11 11 11 11 11 11 11 11 11 11 11 11 10 11 11 10 11 11 10 10 11 11 10 10 10 10 10 10 10 10 10 10 10
11 11 11 11 11 11 11 11 11 11 10 10 11 11 10 11 11 11 11 11 11 10 11 11 10 10 11 10 10 10 11 10 10 10 10 10 10 10 10 10 10 10
11 11 10 10 10 10 10 11 11 10 10 10 10 11 11 10 10 11 11 11 10 10 10 10 10 10 10 10 10 10 10 10 10 10 10 10 10 10 10 10 10 10
11 11 10 10 11 11 11 11 11 10 11 10 10 11 11 10 10 10 10 10 10 10 10 10 10 10 10 10 10 10 10 10 10 10 10 10 10 10 10 10 10 10
11 11 11 10 11 11 11 11 11 11 11 11 11 10 10 10 10 10 10 10 10 10 10 11 10 10 10 10 10 10 10 10 10 10 10 10 10 10 10 10 10 10
10 10 11 11 11 11 11 11 10 10 10 10 11 10 10 10 10 10 10 10 10 10 10 10 10 10 10 10 10 10 10 10 10 10 10 10 10 10 10 10 10 10
10 10 11 11 11 10 10 10 10 10 10 10 10 10 10 10 10 10 10 10 10 10 10 10 10 10 10 10 10 10 10 10 10 10 10 10 10 10 10 10 10 10
10 10 10 11 10 10 10 10 10 10 10 10 10 10 10 10 9 10 10 10 10 10 10 10 10 10 10 10 10 10 10 9 9 10 10 10 10 10 10 10 10 10
10 10 10 10 10 10 10 10 10 10 10 10 10 10 10 10 10 10 10 10 10 10 10 10 10 10 10 10 10 10 9 9 9 10 10 10 10 10 10 9 9 9
9 10 10 9 9 10 10 9 9 9 10 10 10 10 10 10 10 10 10 10 10 10 10 9 9 9 9 9 9 9 9 9 9 9 9 9 9 9 9 9 9 9
9 9 9 9 9 10 10 10 9 9 9 10 10 10 10 10 10 10 10 10 10 10 10 9 9 9 9 9 9 9 9 9 9 9 9 9 9 9 9 9 9 9
9 9 9 9 9 9 10 10 9 9 9 9 9 9 9 9 9 9 9 9 10 10 10 9 9 9 9 9 9 9 9 9 9 9 9 9 9 9 9 9 9 9
9 9 9 10 9 9 9 9 9 9 9 9 9 9 9 9 9 9 9 9 10 10 10 9 9 9 9 8 8 9 9 9 9 9 9 9 9 9 9 9 9 9
9 9 9 9 9 9 9 9 9 9 9 9 9 9 9 9 9 9 9 9 9 9 9 9 8 8 8 9 8 8 8 8 8 9 9 9 9 9 9 9 9 9
9 9 9 9 9 9 9 9 9 9 9 9 9 9 9 9 9 9 9 9 9 9 9 8 8 8 8 9 8 8 8 8 8 8 8 9 9 9 9 9 9 9
Height
3209 3210 3211 3212 3213 3214 3215 3217 3217 3218 3219 3220 3221 3222 3223 3224 3224 3225 3226 3226 3227 3227 3228 3228 3229 3230 3230 3231 3232 3232 3233 3233 3234 3235 3235 3235 3236 3236 3237 3237 3237 3237
3208 3209 3210 3211 3213 3214 3215 3216 3217 3218 3219 3220 3221 3222 3223 3223 3224 3224 3225 3226 3226 3227 3227 3228 3228 3229 3230 3230 3231 3232 3233 3233 3233 3234 3234 3234 3235 3235 3236 3236 3236 3236
3207 3208 3210 3211 3212 3213 3214 3215 3216 3217 3218 3219 3220 3221 3222 3222 3223 3224 3224 3225 3225 3226 3226 3227 3228 3228 3229 3230 3230 3231 3232 3232 3232 3233 3233 3234 3234 3234 3235 3235 3236 3236
3206 3208 3209 3210 3211 3212 3213 3214 3215 3217 3217 3218 3219 3220 3221 3221 3222 3223 3224 3224 3225 3225 3226 3226 3227 3227 3228 3229 3229 3230 3230 3231 3231 3232 3232 3233 3233 3233 3234 3234 3234 3234
3205 3207 3208 3209 3210 3211 3212 3213 3214 3216 3217 3217 3218 3219 3220 3220 3221 3222 3223 3223 3224 3224 3225 3225 3226 3226 3227 3228 3228 3229 3229 3230 3230 3231 3231 3231 3232 3232 3232 3233 3233 3233
3204 3206 3207 3208 3209 3210 3211 3212 3214 3215 3216 3216 3217 3218 3219 3219 3220 3221 3222 3222 3223 3223 3224 3224 3225 3225 3226 3226 3227 3227 3228 3228 3229 3229 3230 3230 3231 3231 3231 3231 3231 3231
3203 3204 3206 3207 3208 3209 3210 3211 3213 3213 3214 3215 3216 3217 3218 3218 3219 3220 3220 3221 3222 3222 3223 3223 3224 3224 3225 3225 3226 3226 3226 3227 3227 3228 3228 3229 3229 3229 3229 3229 3229 3229
3202 3203 3205 3206 3207 3208 3209 3210 3211 3212 3213 3214 3215 3216 3217 3217 3218 3219 3219 3220 3220 3221 3222 3222 3223 3223 3224 3224 3225 3225 3225 3225 3226 3227 3227 3228 3228 3228 3228 3228 3228 3228
3201 3202 3203 3205 3206 3207 3208 3209 3210 3211 3212 3213 3214 3215 3215 3216 3217 3217 3218 3219 3219 3220 3220 3221 3222 3222 3223 3223 3223 3223 3224 3224 3225 3226 3227 3227 3227 3228 3228 3228 3228 3228
3199 3201 3202 3203 3205 3206 3207 3208 3209 3210 3211 3212 3213 3214 3214 3215 3216 3216 3217 3218 3218 3219 3219 3220 3220 3221 3221 3221 3222 3222 3223 3224 3225 3225 3226 3226 3226 3226 3226 3226 3226 3226
3198 3199 3201 3202 3203 3205 3206 3207 3208 3209 3210 3211 3212 3213 3213 3214 3214 3215 3216 3217 3217 3218 3218 3219 3219 3219 3220 3220 3220 3221 3222 3223 3224 3224 3224 3224 3224 3224 3224 3224 3224 3224
3196 3198 3200 3201 3202 3204 3205 3206 3207 3208 3209 3210 3211 3212 3212 3213 3213 3214 3215 3215 3216 3216 3217 3217 3218 3218 3219 3219 3219 3220 3221 3222 3222 3223 3223 3223 3223 3223 3223 3223 3223 3223
3195 3197 3199 3200 3201 3203 3204 3205 3206 3207 3208 3209 3209 3210 3211 3212 3212 3212 3213 3214 3214 3215 3215 3216 3216 3217 3217 3218 3218 3219 3220 3221 3221 3222 3222 3222 3222 3223 3222 3222 3222 3222
3194 3195 3197 3199 3200 3201 3203 3204 3205 3206 3206 3207 3208 3209 3210 3211 3211 3211 3211 3212 3213 3213 3213 3214 3214 3215 3216 3216 3216 3217 3218 3219 3219 3220 3220 3221 3221 3221 3221 3221 3221 3220
3192 3193 3195 3196 3198 3199 3201 3202 3203 3205 3205 3206 3207 3208 3209 3210 3210 3210 3210 3210 3211 3211 3211 3212 3213 3214 3215 3215 3215 3216 3216 3217 3217 3218 3218 3218 3219 3219 3219 3218 3218 3218
3190 3191 3192 3194 3195 3197 3199 3201 3202 3204 3205 3205 3206 3207 3207 3208 3209 3209 3209 3208 3208 3209 3209 3211 3212 3213 3213 3214 3214 3214 3215 3215 3216 3216 3216 3217 3217 3216 3216 3216 3216 3216
3187 3188 3190 3192 3194 3196 3198 3199 3201 3202 3203 3204 3205 3205 3206 3206 3207 3207 3206 3205 3205 3206 3207 3209 3210 3211 3212 3212 3212 3213 3214 3214 3214 3214 3215 3215 3215 3214 3214 3214 3214 3214
3184 3186 3188 3190 3192 3194 3195 3197 3198 3200 3201 3202 3203 3204 3204 3205 3205 3203 3201 3201 3202 3203 3204 3206 3207 3209 3209 3210 3211 3211 3212 3212 3212 3213 3213 3212 3212 3212 3212 3212 3212 3212
3181 3184 3186 3188 3190 3191 3193 3194 3196 3198 3199 3200 3201 3202 3202 3203 3203 3200 3199 3200 3201 3202 3204 3205 3206 3206 3207 3208 3209 3210 3210 3210 3210 3210 3210 3210 3210 3209 3209 3209 3210 3210
3180 3182 3185 3187 3189 3190 3191 3192 3194 3196 3197 3198 3199 3200 3200 3200 3199 3198 3198 3199 3199 3200 3202 3203 3203 3203 3204 3205 3206 3207 3207 3208 3208 3208 3208 3207 3207 3206 3205 3205 3206 3206
3178 3181 3183 3185 3187 3188 3189 3191 3192 3193 3194 3195 3196 3196 3197 3197 3197 3197 3197 3198 3197 3198 3199 3200 3200 3200 3201 3202 3203 3204 3204 3205 3205 3205 3205 3204 3204 3203 3203 3202 3203 3203
3174 3178 3181 3183 3185 3186 3188 3190 3190 3190 3191 3192 3193 3193 3193 3194 3194 3194 3194 3194 3195 3196 3196 3196 3197 3197 3198 3199 3200 3200 3201 3201 3202 3202 3202 3201 3201 3200 3200 3199 3200 3200
3174 3178 3180 3182 3183 3184 3185 3186 3187 3187 3187 3188 3189 3188 3188 3190 3191 3191 3190 3191 3191 3192 3193 3193 3193 3194 3195 3196 3197 3197 3198 3198 3199 3199 3199 3199 3199 3198 3197 3197 3197 3197
3174 3176 3179 3180 3180 3180 3182 3183 3183 3183 3183 3184 3184 3184 3185 3186 3186 3185 3187 3188 3188 3189 3190 3190 3191 3192 3193 3194 3194 3194 3195 3196 3196 3196 3197 3196 3196 3196 3195 3194 3194 3194
3172 3173 3175 3176 3176 3177 3178 3178 3178 3179 3178 3178 3179 3179 3181 3181 3180 3181 3184 3185 3185 3186 3186 3187 3188 3190 3190 3191 3191 3191 3192 3193 3193 3193 3194 3193 3193 3193 3192 3191 3191 3192
3168 3170 3171 3172 3171 3173 3173 3173 3173 3172 3172 3173 3173 3173 3175 3176 3177 3178 3179 3180 3181 3182 3183 3184 3185 3186 3187 3187 3188 3188 3189 3189 3190 3190 3190 3190 3190 3190 3189 3188 3188 3188
Wind_Speed
12 12 11 10 10 10 9 8 8 7 7 6 6 6 6 6 6 5 5 5 5 6 5 6 6 6 6 6 7 7 7 7 7 7 7 7 8 8 8 8 8 8
12 12 12 11 11 10 9 8 8 8 7 7 7 7 6 6 6 6 6 5 6 6 6 6 6 7 7 6 7 7 7 7 8 8 7 7 8 8 8 8 9 9
14 13 12 12 11 11 10 10 9 8 8 8 8 7 7 7 6 7 6 6 7 7 7 7 7 7 7 7 7 8 8 8 9 9 8 8 8 8 8 9 9 9
15 14 14 13 12 12 11 11 10 9 9 8 8 7 8 8 7 7 7 8 8 8 8 7 7 8 8 8 8 8 8 8 9 9 9 8 8 8 9 9 10 10
16 15 15 14 13 12 12 11 10 10 9 9 8 9 9 8 8 8 8 9 9 9 9 8 8 9 8 8 8 8 8 8 8 8 7 7 8 8 9 9 9 9
16 16 15 15 14 13 12 11 11 10 10 10 10 10 10 9 9 9 9 9 9 9 9 9 8 9 8 8 8 7 7 8 7 6 6 7 7 6 7 8 8 8
16 16 15 15 15 13 13 12 12 11 11 11 11 10 10 10 11 11 11 10 10 10 10 9 8 8 9 8 8 8 8 8 7 6 6 6 6 6 7 8 8 7
16 16 16 16 15 14 13 13 13 12 12 12 11 11 11 11 11 11 12 11 11 10 10 9 8 8 9 10 9 9 8 9 8 7 7 6 6 7 8 8 8 8
17 16 16 16 15 14 13 13 12 12 13 13 12 12 12 12 12 12 13 12 11 11 11 10 9 9 10 10 10 10 10 10 9 8 8 7 7 8 8 8 9 9
17 16 16 15 15 14 13 13 13 14 14 14 13 13 13 13 14 14 13 12 11 12 11 11 11 10 10 11 10 10 10 10 10 9 8 8 8 9 9 9 9 9
18 17 16 15 15 15 14 14 15 15 15 15 15 15 14 14 14 14 13 13 12 13 13 12 12 11 11 11 11 11 10 9 9 10 9 8 9 10 10 10 11 11
18 18 17 16 16 16 15 15 15 15 15 15 15 15 15 15 14 13 12 12 12 14 14 13 13 12 11 12 12 11 9 9 9 10 9 9 9 11 12 11 11 11
19 19 18 17 17 16 16 16 16 16 16 16 15 15 15 15 15 13 11 11 12 14 15 14 13 13 12 12 12 12 11 10 10 10 10 10 10 10 11 11 11 11
20 20 19 19 18 18 18 18 17 16 16 16 16 16 14 13 14 14 13 12 12 13 15 15 14 14 13 13 13 13 12 11 11 11 11 11 11 11 10 10 11 11
22 22 21 21 21 20 20 20 19 18 18 17 16 16 15 14 16 16 14 14 13 14 15 15 15 14 13 14 14 14 13 12 11 11 12 12 12 12 12 12 12 13
23 23 23 22 22 22 20 20 19 19 19 19 18 17 16 16 17 16 15 16 17 17 16 15 14 13 13 14 15 15 14 13 11 11 12 13 13 14 14 14 14 15
24 24 24 24 22 21 20 20 19 20 21 22 21 20 19 18 18 17 18 20 20 19 18 16 15 14 14 14 15 15 15 14 12 12 12 14 14 15 16 16 16 16
26 25 26 25 22 21 20 20 21 22 23 24 24 23 22 21 20 21 23 23 20 20 21 19 18 17 16 16 16 17 16 15 15 14 14 15 16 17 18 18 17 17
27 26 25 25 24 23 21 21 22 23 23 24 24 24 25 24 23 25 26 24 23 24 22 19 19 20 19 19 19 18 18 17 18 18 17 17 18 19 20 19 19 19
27 26 24 24 25 25 24 22 22 23 23 23 23 24 25 26 27 28 27 26 27 27 23 20 21 22 21 21 21 21 21 21 21 20 19 19 20 20 20 20 20 22
28 26 24 24 26 27 26 24 23 24 24 25 25 25 26 27 28 29 28 28 29 28 24 22 23 22 22 23 23 23 23 22 22 21 20 20 21 21 21 21 22 23
29 28 27 27 27 27 26 26 26 26 26 26 26 26 27 28 27 28 28 29 30 28 26 24 24 23 23 23 23 22 22 22 22 22 22 22 22 22 22 22 23 25
28 27 25 26 27 28 28 28 29 28 27 28 29 30 31 30 29 29 29 30 30 29 28 27 25 24 23 22 22 23 22 23 23 23 23 23 23 23 23 24 24 25
26 27 25 25 27 27 27 30 31 29 29 31 33 33 33 32 33 33 32 31 30 30 29 29 26 24 23 23 22 23 23 22 23 23 23 23 23 23 24 25 26 26
26 27 26 26 27 26 28 30 31 30 31 33 35 35 35 36 38 38 34 32 32 31 30 31 27 23 22 22 21 21 22 22 22 23 23 23 24 24 25 26 27 26
23 21 21 22 24 24 25 28 31 33 33 33 34 36 36 36 36 36 33 32 33 32 30 30 28 25 25 26 25 22 21 21 21 22 22 23 24 24 26 27 27 26
Wind_Direction
200 196 197 199 200 204 207 204 204 211 216 214 218 225 225 230 238 240 243 251 259 266 267 267 269 270 271 273 276 279 276 274 272 267 268 272 273 272 269 270 273 275
204 202 201 203 204 208 213 212 210 214 219 223 226 229 231 234 242 248 249 251 257 264 268 270 269 269 270 270 273 276 276 277 279 278 277 276 276 279 277 277 278 278
207 206 205 206 206 209 215 216 215 217 221 229 231 229 234 237 240 249 253 255 259 262 264 266 269 268 269 272 273 276 278 278 277 279 279 277 280 282 281 280 281 283
208 207 208 209 208 210 215 218 219 220 222 229 233 232 237 241 244 251 256 255 257 262 263 265 271 272 273 276 277 278 280 277 276 280 281 278 279 280 281 284 284 286
209 209 209 210 211 213 216 218 219 223 225 226 229 234 239 245 248 251 255 257 260 265 267 269 272 274 277 279 280 281 280 279 280 284 285 280 278 279 282 284 286 287
209 209 211 212 214 216 219 220 220 224 227 227 229 235 241 246 249 251 251 255 262 267 269 271 272 273 274 276 277 276 274 276 279 281 284 284 282 285 286 284 284 287
208 208 212 215 216 216 220 222 223 225 228 230 232 237 242 245 248 251 251 253 258 262 266 271 273 273 272 270 270 268 265 268 271 271 274 279 282 282 280 278 278 280
209 209 212 217 218 218 220 221 223 226 228 232 235 239 243 245 246 249 251 253 254 256 262 269 271 270 270 269 268 268 268 268 270 273 275 280 284 283 284 288 290 290
211 212 212 216 219 220 221 222 224 227 231 234 237 241 244 246 246 247 249 253 254 257 262 268 267 264 265 268 268 269 270 272 277 282 286 290 292 292 297 300 299 299
212 213 214 216 219 221 221 222 225 229 231 234 235 240 245 247 246 246 248 253 257 261 263 265 265 264 265 267 268 269 272 278 284 286 287 291 290 290 293 294 294 292
213 214 214 216 219 221 221 222 226 231 234 235 235 239 246 249 249 248 250 252 255 260 262 263 265 267 267 268 269 271 278 285 286 282 281 281 282 287 289 288 289 286
214 215 216 219 220 220 222 224 227 232 238 239 237 239 244 250 255 254 250 248 249 256 262 263 263 264 265 269 271 273 278 280 278 278 278 276 280 289 293 289 285 282
217 218 219 222 223 222 224 227 230 233 236 237 238 240 240 245 255 259 257 253 248 252 259 262 263 263 263 267 270 272 271 270 272 276 277 279 284 291 294 292 290 289
220 221 221 223 225 224 223 226 230 234 236 238 241 243 243 243 251 256 257 258 256 253 254 254 256 259 260 262 264 268 270 269 272 277 279 282 289 293 294 295 297 298
223 225 223 223 225 226 225 226 229 233 238 243 245 247 249 249 250 251 251 254 256 252 250 251 254 257 261 263 263 263 266 267 270 276 281 283 287 292 295 297 298 297
222 226 227 228 230 231 230 231 233 236 241 245 248 250 253 252 254 258 258 257 257 255 254 258 259 258 261 264 264 264 265 266 269 275 281 285 288 291 293 294 293 291
222 226 229 230 232 233 233 233 235 238 241 243 247 250 253 255 258 260 255 251 253 255 257 259 260 261 265 264 264 266 267 269 272 274 278 284 288 289 290 291 292 293
227 229 233 234 233 233 234 233 234 238 240 242 245 248 250 253 257 258 253 249 248 249 251 254 257 262 268 267 265 267 268 271 274 276 278 282 283 284 285 287 289 292
233 233 234 237 237 235 233 234 237 240 243 245 247 248 250 251 253 255 256 258 258 257 256 258 260 263 266 265 265 267 272 276 278 278 280 280 280 282 285 287 291 294
238 239 239 241 243 241 237 236 238 242 246 249 250 251 251 251 251 253 257 261 263 263 264 263 262 265 267 266 267 271 277 278 276 277 279 279 280 281 283 287 293 295
239 241 244 246 247 246 243 241 240 243 246 249 252 254 255 255 256 258 259 260 260 262 263 262 261 264 267 268 268 271 273 273 273 275 278 279 279 281 284 289 293 294
240 239 240 246 252 255 253 249 245 245 250 253 255 257 257 257 258 260 261 260 260 261 261 258 257 260 264 266 266 266 267 269 272 275 276 278 281 283 286 290 291 290
248 249 248 251 257 262 261 254 249 248 252 256 257 257 259 260 259 259 260 262 262 262 259 255 253 254 258 262 263 263 266 268 271 273 274 277 280 283 285 286 286 288
257 261 262 261 263 266 266 261 257 255 256 258 259 259 261 263 261 258 259 262 262 261 258 256 255 254 256 260 262 263 264 266 268 270 273 276 277 280 283 283 284 288
259 261 265 267 268 269 269 266 264 262 260 259 260 261 260 261 261 260 259 260 260 258 256 255 254 254 255 258 263 263 262 264 268 270 272 275 277 280 283 285 287 291
260 260 262 266 269 268 269 271 269 266 263 262 263 262 261 260 260 260 260 258 255 253 252 253 253 255 258 256 257 261 263 263 267 270 271 274 278 281 285 289 290 292